Flag for Austria Weather past 2 weeks in Hallein, Salzburg, Austria

Now
54 °F

Scattered clouds.


Feels Like: 53 °F
Forecast: 39 / 51 °F
Wind: 3 mph from North

Location: Salzburg-Flughafen

Current Time: Oct 25, 2014 at 3:33:00 PM

Latest Report: Oct 25, 2014 at 2:50 PM


Visibility: N/A

Pressure: 30.15 "Hg

Humidity: 63%

Dew point: 41 °F

Location of HalleinLocation

Historic Weather in Hallein — Graph

°F

Hallein temperature yesterday

Maximum temperature yesterday: 52 °F (at 2:50 PM)
Minimum temperature yesterday: 41 °F (at 11:20 PM)
Average temperature yesterday: 46 °F

Past Weeks' High & Low Weather Summary

 TemperatureHumidityPressure
High73 °F (Oct 19, 3:20 PM)100% (Oct 10, 10:20 PM)30.27 "Hg (Oct 10, 10:20 PM)
Low34 °F (Oct 25, 5:20 AM)44% (Oct 19, 2:50 PM)29.65 "Hg (Oct 21, 9:50 PM)
Average55 °F84%30.00 "Hg
* Reported Oct 10 2:20 PM — Oct 25 2:20 PM, Hallein, Weather by CustomWeather, © 2014

Note: Actual official high and low records may vary slightly from our data, if they occured in-between our weather recording intervals... More about our weather records

Advertising

Hallein weather history for previous 24 hours

 ConditionsComfort  
Time TempWeatherWind HumidityBarometerVisibility
2:20 PM
Oct 25
54 °FScattered clouds.2 mph63%30.15 "HgN/A
1:50 PM52 °FPassing clouds.2 mph72%30.15 "HgN/A
1:20 PM50 °FPassing clouds.3 mph71%30.15 "HgN/A
12:50 PM48 °FPassing clouds.5 mph76%30.18 "HgN/A
12:20 PM46 °FPassing clouds.5 mph82%30.18 "HgN/A
11:50 AM45 °FPassing clouds.5 mph87%30.18 "HgN/A
11:20 AM43 °FFog.6 mph87%30.18 "HgN/A
10:50 AM41 °FFog.5 mph93%30.18 "HgN/A
10:20 AM39 °FLight fog.5 mph93%30.18 "HgN/A
9:50 AM37 °FChilly.3 mph93%30.15 "HgN/A
9:20 AM36 °FChilly.5 mph93%30.15 "HgN/A
8:50 AM34 °FChilly.3 mph100%30.15 "HgN/A
8:20 AM34 °FChilly.3 mph100%30.15 "HgN/A
7:50 AM34 °FChilly.2 mph100%30.15 "HgN/A
7:20 AM34 °FFog.1 mph100%30.12 "HgN/A
6:50 AM34 °FPassing clouds.2 mph100%30.12 "HgN/A
6:20 AM34 °FPassing clouds.3 mph100%30.12 "Hg5 mi
5:50 AM34 °FPassing clouds.3 mph93%30.12 "Hg4 mi
5:20 AM34 °FPassing clouds.3 mph100%30.12 "Hg4 mi
4:50 AM37 °FPassing clouds.5 mph93%30.12 "Hg4 mi
4:20 AM36 °FPassing clouds.3 mph100%30.12 "Hg4 mi
3:50 AM37 °FFog.1 mph100%30.12 "Hg4 mi
3:20 AM39 °FChilly.2 mph93%30.15 "HgN/A
2:50 AM37 °FPassing clouds.5 mph100%30.15 "HgN/A
2:20 AM37 °FChilly.3 mph100%30.15 "HgN/A
1:50 AM39 °FChilly.3 mph93%30.15 "HgN/A
1:20 AM39 °FChilly.3 mph93%30.15 "HgN/A
12:50 AM41 °FQuite cool.5 mph93%30.15 "HgN/A
12:20 AM41 °FQuite cool.7 mph93%30.15 "HgN/A
11:50 PM
Oct 24
43 °FQuite cool.5 mph87%30.15 "HgN/A
11:20 PM41 °FPassing clouds.5 mph100%30.15 "HgN/A
10:50 PM43 °FPassing clouds.3 mph93%30.15 "HgN/A
10:20 PM43 °FPassing clouds.3 mph100%30.15 "HgN/A
9:50 PM45 °FPassing clouds.5 mph93%30.15 "HgN/A
9:20 PM45 °FPassing clouds.3 mph93%30.15 "HgN/A
8:50 PM45 °FPassing clouds.5 mph100%30.15 "HgN/A
8:20 PM46 °FPassing clouds.2 mph93%30.15 "HgN/A
7:50 PM48 °FPassing clouds.2 mph87%30.15 "HgN/A
7:20 PM48 °FPassing clouds.3 mph87%30.15 "HgN/A
6:50 PM48 °FPartly sunny.6 mph87%30.15 "HgN/A
6:20 PM48 °FPartly sunny.6 mph87%30.15 "HgN/A
5:50 PM50 °FPartly sunny.7 mph82%30.15 "HgN/A
5:20 PM50 °FPartly sunny.6 mph76%30.15 "HgN/A
4:50 PM50 °FPartly sunny.7 mph76%30.15 "HgN/A
4:20 PM50 °FPartly sunny.6 mph76%30.15 "HgN/A
3:50 PM52 °FBroken clouds.3 mph72%30.15 "HgN/A
3:20 PM52 °FBroken clouds.5 mph72%30.15 "HgN/A
Weather by CustomWeather, © 2014

See weather overviewHow to use our weather pages